Weather History for Billings, MT

Change the Weather History Date:

Wednesday, October 10, 2012

  Actual Average Record
Temperature  
Mean Temperature 57 °F 50 °F  
Max Temperature 71 °F 62 °F 85 °F (1953)
Min Temperature 42 °F 39 °F 16 °F (2009)
Degree Days  
Heating Degree Days 8 15  
Month to date heating degree days 176 132  
Since 1 July heating degree days 241 361  
Cooling Degree Days 0 0  
Month to date cooling degree days 3 0  
Year to date cooling degree days 958 633  
Growing Degree Days 7 (Base 50)    
Moisture  
Dew Point 31 °F    
Average Humidity 47    
Maximum Humidity 70    
Minimum Humidity 23    
Precipitation  
Precipitation T in 0.04 in 0.71 in (2003)
Month to date precipitation 0.73 0.45  
Year to date precipitation 5.81 11.80  
Snow  
Snow 0.00 in 0.10 in 3.10 in (2008)
Month to date snowfall 3.4 1.1  
Since 1 July snowfall 3.4 2.2  
Since 1 September snowfall 3.4 2.2  
Snow Depth 0.00 in    
Sea Level Pressure  
Sea Level Pressure 29.95 in    
Wind  
Wind Speed 17 mph (WSW)    
Max Wind Speed 28 mph    
Max Gust Speed 35 mph    
Visibility 10 miles    
Events      
T = Trace of Precipitation, MM = Missing Value Source: NWS Daily Summary

Daily Weather History Graph

Daily Weather History Graph

Search for Another Location

Airport:

Trip Planner

Search our weather history database for the weather conditions in past years. The results will help you decide how hot, cold, wet, or windy it might be!

Date:

Astronomy

Oct. 10, 2012 Rise Set
Actual Time 7:24 AM MDT 6:36 PM MDT
Civil Twilight 6:55 AM MDT 7:06 PM MDT
Nautical Twilight 6:20 AM MDT 7:40 PM MDT
Astronomical Twilight 5:45 AM MDT 8:15 PM MDT
Moon 1:49 AM MDT (10/10) 3:54 PM MDT (10/10)
Length of Visible Light 12h 11m
Length of Day
11h 11m
Waning Crescent, 26% of the Moon is Illuminated
Oct 10
Waning Crescent
Oct 15
New
Oct 21
First Quarter
Oct 29
Full
Nov 6
Last Quarter

Hourly Weather History & Observations

Time (MDT) Temp. Windchill Dew Point Humidity Pressure Visibility Wind Dir Wind Speed Gust Speed Precip Events Conditions
12:53 AM 43.0 °F 35.7 °F 27.0 °F 53% 30.07 in 10.0 mi WSW 15.0 mph - N/A   Clear
1:53 AM 43.0 °F 34.8 °F 27.0 °F 53% 30.05 in 10.0 mi WSW 18.4 mph - N/A   Clear
2:53 AM 42.1 °F 34.5 °F 28.0 °F 58% 30.02 in 10.0 mi WSW 15.0 mph - N/A   Clear
3:53 AM 43.0 °F 34.2 °F 28.0 °F 56% 29.99 in 10.0 mi WSW 20.7 mph - N/A   Clear
4:53 AM 44.1 °F 35.4 °F 28.0 °F 53% 29.97 in 10.0 mi WSW 21.9 mph - N/A   Clear
5:53 AM 44.1 °F 35.4 °F 27.0 °F 51% 29.95 in 10.0 mi WSW 21.9 mph 26.5 mph N/A   Clear
6:53 AM 44.1 °F 35.0 °F 27.0 °F 51% 29.94 in 10.0 mi WSW 24.2 mph 29.9 mph N/A   Clear
7:53 AM 44.1 °F 35.4 °F 27.0 °F 51% 29.96 in 10.0 mi WSW 21.9 mph 29.9 mph N/A   Clear
8:53 AM 46.9 °F - 27.0 °F 46% 29.96 in 10.0 mi SW 19.6 mph - N/A   Clear
9:53 AM 50.0 °F - 28.0 °F 43% 29.95 in 10.0 mi SW 18.4 mph - N/A   Clear
10:53 AM 55.0 °F - 28.9 °F 37% 29.93 in 10.0 mi SW 19.6 mph 26.5 mph N/A   Clear
11:53 AM 59.0 °F - 30.0 °F 33% 29.90 in 10.0 mi SW 18.4 mph 26.5 mph N/A   Clear
12:53 PM 63.0 °F - 30.0 °F 29% 29.89 in 10.0 mi SW 13.8 mph 23.0 mph N/A   Clear
1:53 PM 64.9 °F - 30.9 °F 28% 29.85 in 10.0 mi SW 16.1 mph 23.0 mph N/A   Clear
2:53 PM 66.9 °F - 30.9 °F 26% 29.84 in 10.0 mi SW 10.4 mph - N/A   Clear
3:53 PM 68.0 °F - 32.0 °F 26% 29.82 in 10.0 mi SW 8.1 mph - N/A   Clear
4:53 PM 70.0 °F - 30.0 °F 23% 29.82 in 10.0 mi NE 11.5 mph - N/A   Clear
5:53 PM 64.0 °F - 34.0 °F 33% 29.87 in 10.0 mi NE 11.5 mph 20.7 mph N/A   Partly Cloudy
6:53 PM 55.9 °F - 36.0 °F 47% 29.92 in 10.0 mi NNE 11.5 mph - N/A   Scattered Clouds
7:53 PM 53.1 °F - 36.0 °F 52% 29.96 in 10.0 mi NE 15.0 mph 25.3 mph N/A   Scattered Clouds
8:53 PM 51.1 °F - 37.0 °F 59% 30.01 in 10.0 mi NE 20.7 mph 29.9 mph N/A   Mostly Cloudy
9:53 PM 48.9 °F - 37.0 °F 64% 30.05 in 10.0 mi NE 17.3 mph 25.3 mph N/A   Scattered Clouds
10:53 PM 46.0 °F 39.9 °F 36.0 °F 68% 30.09 in 10.0 mi NE 13.8 mph - N/A   Mostly Cloudy
11:53 PM 45.0 °F 38.5 °F 35.1 °F 68% 30.10 in 10.0 mi NE 13.8 mph - N/A   Overcast